This demonstration page uses our WeatherBlox Daily Observations layout. Learn more.

Hourly Observations for June 22, 2015

Temp ( °F °C ) Dew Point ( °F °C ) Humidity (%) Winds ( mph kmh ) Pressure ( in mb ) Visibility ( mi km ) Precip ( " mm )
12:15 am 00:15 Clear 80 26.6 66 19 63 63 S 13 20 29.65 1004 10 16.0934 0 0
12:35 am 00:35 Clear 80 26.5 66 18.8 63 63 S 15 24 29.65 1004 10 16.0934 0 0
12:55 am 00:55 Clear 80 26.5 66 19 63 63 S 15 24 29.65 1004 10 16.0934 0 0
1:15 am 01:15 Clear 79 26.1 66 19 65 65 S 16 26 29.65 1004 10 16.0934 0 0
1:35 am 01:35 Clear 79 26 66 19 65 65 S 16 26 29.65 1004 10 16.0934 0 0
1:55 am 01:55 Clear 79 26 66 19 65 65 SSW 20 31 29.65 1004 10 16.0934 0 0
2:15 am 02:15 Clear 78 25.6 66 19.1 67 67 S 17 28 29.62 1003 10 16.0934 0 0
2:35 am 02:35 Clear 78 25.5 66 19.1 68 68 SSW 18 30 29.62 1003 10 16.0934 0 0
2:55 am 02:55 Clear 77 25.2 67 19.2 69 69 SSW 18 30 29.62 1003 10 16.0934 0 0
3:15 am 03:15 Clear 77 25.1 67 19.3 70 70 SSW 18 30 29.62 1003 10 16.0934 0 0
3:35 am 03:35 Clear 77 25 67 19.3 71 71 SSW 20 31 29.59 1002 10 16.0934 0 0
3:55 am 03:55 Clear 77 25 67 19.2 70 70 SSW 21 33 29.59 1002 10 16.0934 0 0
4:15 am 04:15 Clear 77 25 66 19 69 69 SSW 21 33 29.59 1002 10 16.0934 0 0
4:35 am 04:35 Clear 77 24.8 66 18.8 69 69 SSW 17 28 29.59 1002 10 16.0934 0 0
4:55 am 04:55 Clear 76 24.6 66 18.7 70 70 SSW 15 24 29.59 1002 10 16.0934 0 0
5:15 am 05:15 Clear 76 24.5 65 18.5 69 69 SSW 16 26 29.59 1002 10 16.0934 0 0
5:35 am 05:35 Clear 76 24.3 65 18.5 70 70 SSW 16 26 29.59 1002 10 16.0934 0 0
5:55 am 05:55 Clear 75 23.7 65 18.5 73 73 SSW 12 19 29.59 1002 10 16.0934 0 0
6:15 am 06:15 Sunny 74 23.5 65 18.5 74 74 S 10 17 29.65 1004 10 16.0934 0 0
6:35 am 06:35 Sunny 74 23.3 65 18.3 74 74 SSW 7 11 29.65 1004 10 16.0934 0 0
6:55 am 06:55 Sunny 73 23 65 18.3 75 75 SW 6 9 29.65 1004 10 16.0934 0 0
7:15 am 07:15 Sunny 74 23.4 65 18.4 74 74 SSW 8 13 29.65 1004 10 16.0934 0 0
7:35 am 07:35 Sunny 75 24 65 18.4 71 71 WSW 7 11 29.65 1004 10 16.0934 0 0
7:55 am 07:55 Sunny 75 24 65 18.6 72 72 SW 7 11 29.65 1004 10 16.0934 0 0
8:15 am 08:15 Sunny 77 25 66 18.7 68 68 SW 8 13 29.65 1004 10 16.0934 0 0
8:35 am 08:35 Sunny 78 25.5 66 19 67 67 WSW 7 11 29.62 1003 10 16.0934 0 0
8:55 am 08:55 Sunny 79 26 66 18.7 64 64 W 8 13 29.65 1004 10 16.0934 0 0
9:15 am 09:15 Sunny 81 27 66 18.9 61 61 WNW 9 15 29.65 1004 10 16.0934 0 0
9:35 am 09:35 Sunny 82 27.6 66 18.9 59 59 NW 12 19 29.65 1004 10 16.0934 0 0
9:55 am 09:55 Sunny 81 27.3 67 19.3 62 62 NNW 12 19 29.65 1004 10 16.0934 0 0
10:15 am 10:15 Sunny 81 27.2 69 20.5 67 67 NNW 17 28 29.65 1004 10 16.0934 0 0
10:35 am 10:35 Sunny 81 27.3 69 20.8 68 68 N 18 30 29.68 1005 10 16.0934 0 0
10:55 am 10:55 Sunny 81 27.4 70 20.9 68 68 N 22 35 29.68 1005 10 16.0934 0 0
11:15 am 11:15 Sunny 80 26.5 68 20 68 68 NNW 21 33 29.71 1006 10 16.0934 0 0
11:35 am 11:35 Sunny 81 27.1 68 20.2 66 66 NNW 20 31 29.71 1006 10 16.0934 0 0
11:55 am 11:55 Sunny 80 26.9 67 19.7 65 65 N 18 30 29.74 1007 10 16.0934 0 0
12:15 pm 12:15 Sunny 81 27 66 18.9 61 61 NNW 20 31 29.74 1007 10 16.0934 0 0
12:35 pm 12:35 Sunny 81 27 63 17 54 54 N 17 28 29.77 1008 10 16.0934 0 0
12:55 pm 12:55 Sunny 81 27.2 63 17.2 54 54 N 20 31 29.77 1008 10 16.0934 0 0
1:15 pm 13:15 Sunny 82 27.7 61 16.3 50 50 N 22 35 29.77 1008 10 16.0934 0 0
1:35 pm 13:35 Sunny 82 27.9 61 16.2 49 49 N 21 33 29.8 1009 10 16.0934 0 0
1:55 pm 13:55 Sunny 82 28 61 16.1 48 48 N 23 37 29.8 1009 10 16.0934 0 0
2:15 pm 14:15 Sunny 83 28.3 61 16 47 47 N 17 28 29.8 1009 10 16.0934 0 0
2:35 pm 14:35 Sunny 83 28.4 61 16.1 47 47 N 21 33 29.8 1009 10 16.0934 0 0
2:55 pm 14:55 Sunny 83 28.5 62 16.4 48 48 N 23 37 29.83 1010 10 16.0934 0 0
3:15 pm 15:15 Sunny 83 28.3 60 15.5 46 46 N 21 33 29.83 1010 10 16.0934 0 0
3:35 pm 15:35 Sunny 83 28.3 62 16.5 49 49 N 22 35 29.83 1010 10 16.0934 0 0
3:55 pm 15:55 Sunny 83 28.2 62 16.6 49 49 N 20 31 29.83 1010 10 16.0934 0 0
4:15 pm 16:15 Sunny 82 28 60 15.5 47 47 N 23 37 29.83 1010 10 16.0934 0 0
4:35 pm 16:35 Sunny 83 28.1 60 15.3 46 46 N 18 30 29.85 1011 10 16.0934 0 0
4:55 pm 16:55 Sunny 82 27.8 60 15.4 47 47 N 18 30 29.85 1011 10 16.0934 0 0
5:15 pm 17:15 Sunny 82 27.6 60 15.3 47 47 N 21 33 29.85 1011 10 16.0934 0 0
5:35 pm 17:35 Sunny 82 27.5 56 13.5 42 42 N 17 28 29.85 1011 10 16.0934 0 0
5:55 pm 17:55 Sunny 81 27.3 56 13.6 43 43 N 13 20 29.85 1011 10 16.0934 0 0
6:15 pm 18:15 Sunny 80 26.9 57 14.1 45 45 NNE 18 30 29.85 1011 10 16.0934 0 0
6:35 pm 18:35 Sunny 80 26.6 56 13.6 45 45 NNE 15 24 29.85 1011 10 16.0934 0 0
6:55 pm 18:55 Sunny 79 26.3 55 12.7 43 43 N 21 33 29.91 1013 10 16.0934 0 0
7:15 pm 19:15 Sunny 78 25.8 55 12.8 45 45 NNE 20 31 29.91 1013 10 16.0934 0 0
7:35 pm 19:35 Sunny 78 25.5 54 12.4 44 44 NNE 18 30 29.91 1013 10 16.0934 0 0
7:55 pm 19:55 Sunny 77 24.8 54 12.3 46 46 NNE 12 19 29.91 1013 10 16.0934 0 0
8:15 pm 20:15 Sunny 75 24 55 12.9 50 50 NNE 15 24 29.91 1013 10 16.0934 0 0
8:35 pm 20:35 Sunny 74 23.2 54 12.2 50 50 NNE 12 19 29.97 1015 10 16.0934 0 0
8:55 pm 20:55 Sunny 71 21.8 52 11.2 51 51 NNE 9 15 29.97 1015 10 16.0934 0 0
9:15 pm 21:15 Clear 69 20.6 51 10.8 54 54 NNE 8 13 29.97 1015 10 16.0934 0 0
9:35 pm 21:35 Clear 67 19.3 52 11.1 59 59 N 7 11 30 1016 10 16.0934 0 0
9:55 pm 21:55 Clear 65 18.5 53 11.5 64 64 N 6 9 30 1016 10 16.0934 0 0
11:55 pm 23:55 Clear 60 15.3 52 11.2 77 77 N 9 15 30.06 1018 10 16.0934 0 0

Powered by AerisWeather